sat.trackr.live / text

‹ back to catalog

GHOST-4

NORAD 59133 · 2024-043AM

PAYLOAD ACTIVE UNKNOWN

§ Identity

Operator
Country
US
Launch date
2024-03-04
Launch site
AFWTR
Launch vehicle
Mass (kg)
RCS (m²)

External: N2YO · Heavens-Above · Gunter

§ Orbital elements

Epoch: 2026-09-22T20:59:22.765920Z

Period
93.16 min
Inclination
97.5728°
Eccentricity
0.0006821
Mean motion
15.45754666 rev/d
Perigee alt
424.5 km
Apogee alt
433.8 km
Semi-major
6,807.3 km
B*
2.5225e-4
RAAN
54.8170°
Arg perigee
217.1788°
Mean anomaly
142.8989°
Rev number
14,261

§ Raw data

GHOST-41 59133U 24043AM  26265.87456905  .00012121  00000+0  25225-3 0  99942 59133  97.5728  54.8170 0006821 217.1788 142.8989 15.45754666142611

JSON: /api/v1/satellites/59133 · /tle

For live sub-satellite position, see the globe view (requires WebGL).

§ Visibility from observer

Set your observer location to see the next 7 days of passes ≥ 10°. The values pass through the URL so the page stays shareable.

No JS? Fill the form by hand. The geolocation button needs JavaScript.

§ Radio — SatNOGS DB

ModeDescriptionDownlinkUplink
FSK LoRa 400.500 MHz

1 transmitter · refreshed weekly from db.satnogs.org